TimeCST,TemperatureF,Dew PointF,Humidity,Sea Level PressureIn,VisibilityMPH,Wind Direction,Wind SpeedMPH,Gust SpeedMPH,PrecipitationIn,Events,Conditions,WindDirDegrees,DateUTC
12:15 AM,27.1,18.1,69,30.34,10.0,WNW,5.8,-,N/A,,Clear,300,2012-11-24 06:15:00
12:35 AM,26.6,18.0,70,30.34,10.0,WNW,5.8,-,N/A,,Clear,300,2012-11-24 06:35:00
12:55 AM,26.4,17.8,70,30.33,10.0,WNW,5.8,-,N/A,,Clear,300,2012-11-24 06:55:00
1:15 AM,26.2,17.6,70,30.33,10.0,WNW,5.8,-,N/A,,Clear,300,2012-11-24 07:15:00
1:35 AM,25.7,17.6,71,30.33,10.0,WNW,3.5,-,N/A,,Clear,300,2012-11-24 07:35:00
1:55 AM,24.8,17.6,74,30.33,10.0,WNW,4.6,-,N/A,,Clear,300,2012-11-24 07:55:00
2:15 AM,24.8,17.6,74,30.33,10.0,WNW,5.8,-,N/A,,Clear,300,2012-11-24 08:15:00
2:35 AM,24.8,17.6,74,30.34,10.0,West,4.6,-,N/A,,Clear,280,2012-11-24 08:35:00
2:55 AM,24.6,17.1,73,30.34,10.0,WNW,5.8,-,N/A,,Clear,290,2012-11-24 08:55:00
3:15 AM,24.3,16.7,73,30.33,10.0,WNW,4.6,-,N/A,,Clear,300,2012-11-24 09:15:00
3:35 AM,23.0,17.6,80,30.33,10.0,WNW,4.6,-,N/A,,Clear,300,2012-11-24 09:35:00
3:55 AM,23.4,16.7,76,30.33,10.0,WNW,4.6,-,N/A,,Clear,300,2012-11-24 09:55:00
4:15 AM,23.4,16.7,76,30.33,10.0,WNW,4.6,-,N/A,,Clear,290,2012-11-24 10:15:00
4:35 AM,23.0,16.5,76,30.32,10.0,WNW,5.8,-,N/A,,Clear,290,2012-11-24 10:35:00
4:55 AM,22.6,16.5,77,30.32,10.0,WNW,3.5,-,N/A,,Clear,300,2012-11-24 10:55:00
5:15 AM,22.5,16.5,78,30.32,10.0,WNW,3.5,-,N/A,,Clear,290,2012-11-24 11:15:00
5:35 AM,22.5,16.5,78,30.33,10.0,WNW,5.8,-,N/A,,Clear,290,2012-11-24 11:35:00
5:55 AM,22.3,16.5,79,30.33,10.0,WNW,4.6,-,N/A,,Clear,300,2012-11-24 11:55:00
6:15 AM,21.2,16.7,83,30.32,10.0,NW,4.6,-,N/A,,Clear,310,2012-11-24 12:15:00
6:35 AM,21.7,16.5,80,30.33,10.0,West,4.6,-,N/A,,Clear,280,2012-11-24 12:35:00
6:55 AM,21.7,16.2,79,30.33,10.0,WNW,3.5,-,N/A,,Clear,290,2012-11-24 12:55:00
7:15 AM,21.9,16.5,80,30.33,10.0,West,4.6,-,N/A,,Clear,270,2012-11-24 13:15:00
7:35 AM,22.6,16.7,78,30.33,10.0,West,5.8,-,N/A,,Clear,280,2012-11-24 13:35:00
7:55 AM,23.0,17.2,79,30.35,10.0,West,5.8,-,N/A,,Clear,280,2012-11-24 13:55:00
8:15 AM,23.9,17.2,76,30.35,10.0,WNW,8.1,-,N/A,,Clear,290,2012-11-24 14:15:00
8:35 AM,24.1,17.1,75,30.34,10.0,West,6.9,-,N/A,,Clear,280,2012-11-24 14:35:00
8:55 AM,24.8,17.4,74,30.34,10.0,West,4.6,-,N/A,,Clear,280,2012-11-24 14:55:00
9:15 AM,25.5,17.8,72,30.34,10.0,WNW,3.5,-,N/A,,Clear,290,2012-11-24 15:15:00
9:35 AM,26.4,18.1,71,30.34,10.0,WNW,3.5,-,N/A,,Clear,300,2012-11-24 15:35:00
9:55 AM,27.5,18.7,69,30.34,10.0,Calm,Calm,-,N/A,,Clear,0,2012-11-24 15:55:00
10:15 AM,28.0,18.7,68,30.33,10.0,SW,5.8,-,N/A,,Clear,220,2012-11-24 16:15:00
10:35 AM,28.9,19.0,67,30.33,10.0,West,5.8,-,N/A,,Clear,260,2012-11-24 16:35:00
10:55 AM,29.7,18.9,64,30.33,10.0,West,3.5,-,N/A,,Clear,270,2012-11-24 16:55:00
11:15 AM,30.2,18.7,62,30.31,10.0,SW,3.5,-,N/A,,Clear,230,2012-11-24 17:15:00
11:35 AM,30.9,19.4,62,30.29,10.0,SW,3.5,-,N/A,,Clear,230,2012-11-24 17:35:00
11:55 AM,31.1,20.1,64,30.28,10.0,SSW,5.8,-,N/A,,Clear,210,2012-11-24 17:55:00
12:15 PM,31.5,20.1,63,30.27,10.0,South,3.5,-,N/A,,Clear,190,2012-11-24 18:15:00
12:35 PM,31.6,19.4,61,30.26,10.0,SSW,4.6,-,N/A,,Clear,200,2012-11-24 18:35:00
12:55 PM,32.7,20.7,61,30.24,10.0,South,5.8,-,N/A,,Clear,190,2012-11-24 18:55:00
1:15 PM,33.3,20.5,59,30.24,10.0,South,4.6,-,N/A,,Clear,190,2012-11-24 19:15:00
1:35 PM,33.4,19.4,56,30.23,10.0,WSW,6.9,-,N/A,,Clear,240,2012-11-24 19:35:00
1:55 PM,34.0,20.3,57,30.21,10.0,SW,5.8,-,N/A,,Clear,220,2012-11-24 19:55:00
2:15 PM,34.5,19.6,54,30.20,10.0,WSW,8.1,-,N/A,,Clear,250,2012-11-24 20:15:00
2:35 PM,34.7,19.6,54,30.18,10.0,SW,5.8,-,N/A,,Clear,220,2012-11-24 20:35:00
2:55 PM,34.7,19.8,54,30.18,10.0,SSW,4.6,-,N/A,,Clear,200,2012-11-24 20:55:00
3:15 PM,35.1,19.6,53,30.18,10.0,South,5.8,-,N/A,,Clear,180,2012-11-24 21:15:00
3:35 PM,35.2,20.1,54,30.17,10.0,South,4.6,-,N/A,,Clear,190,2012-11-24 21:35:00
3:55 PM,34.9,20.5,56,30.16,10.0,South,5.8,-,N/A,,Clear,170,2012-11-24 21:55:00
4:15 PM,34.7,20.8,57,30.15,10.0,South,6.9,-,N/A,,Clear,170,2012-11-24 22:15:00
4:35 PM,33.8,21.2,60,30.13,10.0,SSE,5.8,-,N/A,,Clear,160,2012-11-24 22:35:00
4:55 PM,32.5,22.1,65,30.13,10.0,SSE,5.8,-,N/A,,Clear,160,2012-11-24 22:55:00
5:15 PM,32.9,22.6,66,30.12,10.0,SSE,5.8,-,N/A,,Clear,150,2012-11-24 23:15:00
5:35 PM,32.7,22.1,65,30.11,10.0,SE,5.8,-,N/A,,Clear,140,2012-11-24 23:35:00
5:55 PM,32.4,22.8,68,30.10,10.0,SSE,6.9,-,N/A,,Clear,150,2012-11-24 23:55:00
6:15 PM,32.0,23.0,69,30.09,10.0,SSE,6.9,-,N/A,,Clear,150,2012-11-25 00:15:00
6:35 PM,32.0,22.8,69,30.08,10.0,SSE,6.9,-,N/A,,Clear,150,2012-11-25 00:35:00
6:55 PM,32.0,22.6,68,30.07,10.0,SSE,8.1,-,N/A,,Clear,150,2012-11-25 00:55:00
7:15 PM,31.5,22.8,70,30.06,10.0,SSE,8.1,-,N/A,,Clear,150,2012-11-25 01:15:00
7:35 PM,31.5,22.6,70,30.05,10.0,SSE,8.1,-,N/A,,Clear,160,2012-11-25 01:35:00
7:55 PM,31.3,23.0,71,30.04,10.0,SE,6.9,-,N/A,,Clear,140,2012-11-25 01:55:00
8:15 PM,32.0,22.8,69,30.03,10.0,SSE,6.9,-,N/A,,Clear,150,2012-11-25 02:15:00
8:35 PM,32.0,22.1,67,30.04,10.0,SSE,5.8,-,N/A,,Clear,160,2012-11-25 02:35:00
8:55 PM,31.1,22.6,71,30.03,10.0,SSE,5.8,-,N/A,,Clear,160,2012-11-25 02:55:00
9:15 PM,31.5,21.9,68,30.03,10.0,SSE,6.9,-,N/A,,Clear,160,2012-11-25 03:15:00
9:35 PM,31.6,22.6,69,30.03,10.0,SSE,4.6,-,N/A,,Clear,160,2012-11-25 03:35:00
9:55 PM,31.6,22.8,70,30.01,10.0,SSE,6.9,-,N/A,,Clear,150,2012-11-25 03:55:00
10:15 PM,30.9,23.0,72,30.00,10.0,SE,5.8,-,N/A,,Clear,140,2012-11-25 04:15:00
10:35 PM,30.7,22.8,72,30.00,10.0,SE,3.5,-,N/A,,Clear,130,2012-11-25 04:35:00
10:55 PM,30.6,22.8,73,30.00,10.0,SSE,6.9,-,N/A,,Clear,150,2012-11-25 04:55:00
11:15 PM,29.8,22.8,75,29.99,10.0,South,3.5,-,N/A,,Clear,180,2012-11-25 05:15:00
11:35 PM,30.0,22.8,75,29.99,10.0,South,5.8,-,N/A,,Clear,170,2012-11-25 05:35:00
11:55 PM,30.2,23.0,75,29.99,10.0,South,3.5,-,N/A,,Clear,180,2012-11-25 05:55:00